Ottumwa, IA

7:16 PM CST on November 11, 2019 (GMT -0600)
Ottumwa Industrial

Weather History for KOTM - October, 2019

Change the Weather History Date:

Tuesday, October 22, 2019

  Actual Average Record
Temperature  
Mean Temperature 46 °F 50 °F  
Max Temperature 55 °F 61 °F 86 °F (1940)
Min Temperature 36 °F 40 °F 22 °F (1976)
Degree Days  
Heating Degree Days 19 15  
Month to date heating degree days 292 252  
Since 1 July heating degree days 308 373  
Cooling Degree Days 0 0  
Month to date cooling degree days 16 9  
Year to date cooling degree days 1095 936  
Moisture  
Dew Point 35 °F    
Average Humidity 55    
Maximum Humidity 71    
Minimum Humidity 38    
Precipitation  
Precipitation 0.00 in 0.09 in 2.88 in (2001)
Month to date precipitation 2.06 2.02  
Year to date precipitation 38.26 32.51  
Sea Level Pressure  
Sea Level Pressure 29.73 in    
Wind  
Wind Speed 17 mph (West)    
Max Wind Speed 29 mph    
Max Gust Speed 43 mph    
Visibility 10 miles    
Events      
T = Trace of Precipitation, MM = Missing Value Source: NWS Daily Summary

Daily Weather History Graph

Daily Weather History Graph

Search for Another Location

Airport or City:

Astronomy

Oct. 22, 2019 Rise Set
Actual Time 7:28 AM CDT 6:18 PM CDT
Civil Twilight 7:00 AM CDT 6:46 PM CDT
Nautical Twilight 6:28 AM CDT 7:19 PM CDT
Astronomical Twilight 5:56 AM CDT 7:50 PM CDT
Moon 12:34 AM CDT (10/22) 3:32 PM CDT (10/22)
Length of Visible Light 11h 46m
Length of Day
10h 49m
Last Quarter, 37% of the Moon is Illuminated
Oct 22
Last Quarter
Oct 27
New
Nov 4
First Quarter
Nov 12
Full
Nov 19
Last Quarter

Hourly Weather History & Observations

Time (CDT) Temp. Windchill Dew Point Humidity Pressure Visibility Wind Dir Wind Speed Gust Speed Precip Events Conditions
12:53 AM 48.9 °F - 41.0 °F 74% 29.56 in 10.0 mi West 23.0 mph 40.3 mph 0.00 in   Overcast
1:05 AM 48.9 °F - 39.9 °F 71% 29.56 in 10.0 mi West 23.0 mph 39.1 mph N/A   Overcast
1:26 AM 48.9 °F - 39.9 °F 71% 29.56 in 10.0 mi West 25.3 mph 40.3 mph N/A   Overcast
1:53 AM 48.0 °F - 39.9 °F 74% 29.57 in 10.0 mi West 18.4 mph 35.7 mph N/A   Overcast
2:14 AM 48.0 °F - 39.9 °F 74% 29.57 in 10.0 mi West 21.9 mph 34.5 mph N/A   Overcast
2:53 AM 48.9 °F - 39.0 °F 69% 29.58 in 10.0 mi West 19.6 mph 36.8 mph N/A   Overcast
3:53 AM 48.9 °F - 37.9 °F 66% 29.60 in 10.0 mi West 25.3 mph 38.0 mph N/A   Overcast
4:15 AM 48.0 °F - 39.0 °F 71% 29.60 in 10.0 mi West 28.8 mph 39.1 mph N/A   Overcast
4:36 AM 48.0 °F - 37.9 °F 68% 29.62 in 10.0 mi West 23.0 mph 34.5 mph N/A   Overcast
4:53 AM 48.0 °F - 37.9 °F 68% 29.62 in 10.0 mi West 20.7 mph 33.4 mph N/A   Overcast
5:19 AM 48.0 °F - 37.9 °F 68% 29.63 in 10.0 mi West 20.7 mph 35.7 mph N/A   Overcast
5:53 AM 46.9 °F - 37.0 °F 68% 29.66 in 10.0 mi West 23.0 mph 38.0 mph N/A   Overcast
6:03 AM 46.9 °F - 37.0 °F 68% 29.66 in 10.0 mi West 25.3 mph 41.4 mph N/A   Overcast
6:53 AM 46.0 °F 37.8 °F 36.0 °F 68% 29.69 in 10.0 mi West 23.0 mph 33.4 mph N/A   Overcast
7:53 AM 45.0 °F 37.4 °F 35.1 °F 68% 29.71 in 10.0 mi West 18.4 mph 27.6 mph N/A   Overcast
8:27 AM 45.0 °F 37.4 °F 35.1 °F 68% 29.72 in 10.0 mi West 18.4 mph 31.1 mph N/A   Overcast
8:53 AM 44.1 °F 36.5 °F 35.1 °F 71% 29.75 in 10.0 mi West 17.3 mph 35.7 mph N/A   Overcast
9:53 AM 45.0 °F 37.1 °F 35.1 °F 68% 29.77 in 10.0 mi West 19.6 mph 32.2 mph N/A   Mostly Cloudy
10:51 AM 48.2 °F - 35.6 °F 62% 29.76 in 10.0 mi West 18.4 mph 31.1 mph N/A   Scattered Clouds
10:53 AM 48.0 °F - 36.0 °F 63% 29.77 in 10.0 mi West 19.6 mph 31.1 mph N/A   Partly Cloudy
11:53 AM 51.1 °F - 37.0 °F 59% 29.78 in 10.0 mi West 19.6 mph 29.9 mph N/A   Partly Cloudy
12:53 PM 52.0 °F - 36.0 °F 54% 29.78 in 10.0 mi West 21.9 mph 40.3 mph N/A   Partly Cloudy
1:53 PM 54.0 °F - 35.1 °F 49% 29.78 in 10.0 mi West 20.7 mph 34.5 mph N/A   Scattered Clouds
2:53 PM 54.0 °F - 30.0 °F 40% 29.79 in 10.0 mi West 23.0 mph 35.7 mph N/A   Clear
3:53 PM 54.0 °F - 28.0 °F 37% 29.81 in 10.0 mi WNW 26.5 mph 34.5 mph N/A   Clear
4:53 PM 53.1 °F - 28.0 °F 38% 29.83 in 10.0 mi West 20.7 mph 33.4 mph N/A   Clear
5:53 PM 50.0 °F - 28.0 °F 43% 29.86 in 10.0 mi West 17.3 mph 29.9 mph N/A   Partly Cloudy
6:53 PM 46.9 °F - 27.0 °F 46% 29.88 in 10.0 mi West 9.2 mph - N/A   Clear
7:53 PM 44.1 °F 40.1 °F 28.0 °F 53% 29.89 in 10.0 mi WSW 6.9 mph - N/A   Clear
8:53 PM 43.0 °F 38.8 °F 28.9 °F 58% 29.89 in 10.0 mi SW 6.9 mph - N/A   Clear
9:53 PM 41.0 °F 38.0 °F 30.0 °F 65% 29.90 in 10.0 mi WSW 4.6 mph - N/A   Scattered Clouds
10:53 PM 39.0 °F 34.0 °F 30.0 °F 70% 29.90 in 10.0 mi SW 6.9 mph - N/A   Scattered Clouds
11:53 PM 39.9 °F 35.8 °F 30.9 °F 70% 29.89 in 10.0 mi SSW 5.8 mph - N/A   Clear